Location: Bocianicha
(51.5066°N, 19.2563°E)
Time: 13:32:28
(UTC+00:00)

USA 307 - Pass Details

Date: 15 June 2025
Orbit: 495 x 502 km, 54.0° (Epoch: 10 March)

Event Time Altitude Azimuth Distance (km) Brightness Sun altitude
Exits shadow 00:20:42 - 262° (W) 2,219 5.6 -12.2°
Reaches altitude 10° 00:22:07 10° 264° (W) 1,676 5.0 -12.1°
Maximum altitude 00:26:00 68° 347° (NNW) 545 3.0 -11.9°
Drops below altitude 10° 00:29:54 10° 72° (ENE) 1,674 5.9 -11.6°
Sets 00:32:02 0° 75° (ENE) 2,501 6.8 -11.5°
